Ashgabat, Turkmenistan

8:46 PM +05 on November 21, 2019 (GMT +0500)
Ashgabat

Weather History for UTAA - June, 2019

Change the Weather History Date:

Saturday, June 1, 2019

  Actual Average Record
Temperature  
Mean Temperature 75 °F -  
Max Temperature 84 °F 96 °F - ()
Min Temperature 66 °F 69 °F - ()
Cooling Degree Days 10    
Growing Degree Days 25 (Base 50)    
Moisture  
Dew Point 58 °F    
Average Humidity 53    
Maximum Humidity 83    
Minimum Humidity 30    
Precipitation  
Precipitation 0.24 in 0.01 in - ()
Sea Level Pressure  
Sea Level Pressure 29.96 in    
Wind  
Wind Speed 8 mph ()    
Max Wind Speed 16 mph    
Max Gust Speed 34 mph    
Visibility 5.9 miles    
Events Rain , Thunderstorm    
T = Trace of Precipitation, MM = Missing Value Source: Averaged Metar Reports

Daily Weather History Graph

Daily Weather History Graph

Search for Another Location

Airport or City:

Astronomy

Jun. 01, 2019 Rise Set
Actual Time 5:46 AM +05 8:23 PM +05
Civil Twilight 5:15 AM +05 8:53 PM +05
Nautical Twilight 4:37 AM +05 9:32 PM +05
Astronomical Twilight 3:54 AM +05 10:15 PM +05
Moon 4:34 AM +05 (6/1) 6:12 PM +05 (6/1)
Length of Visible Light 15h 38m
Length of Day
14h 37m
Waning Crescent, 5% of the Moon is Illuminated
Jun 1
Waning Crescent
Jun 3
New
Jun 10
First Quarter
Jun 17
Full
Jun 25
Last Quarter

Hourly Weather History & Observations

Time (+05) Temp. Heat Index Dew Point Humidity Pressure Visibility Wind Dir Wind Speed Gust Speed Precip Events Conditions
12:00 AM 77.0 °F - 51.8 °F 41% 29.95 in 5.0 mi West 16.1 mph - N/A   Overcast
1:00 AM 71.6 °F - 59.0 °F 64% 29.95 in 6.2 mi West 16.1 mph - N/A Rain , Thunderstorm Light Thunderstorms and Rain
2:00 AM 74 °F - 57 °F 45% 29.96 in 6 mi WSW 11.2 mph - - Rain , Thunderstorm Thunderstorms and Rain
2:00 AM 69.8 °F - 57.2 °F 64% 29.95 in 6.2 mi WSW 11.5 mph 29.9 mph N/A Rain , Thunderstorm Light Thunderstorms and Rain
3:00 AM 68.0 °F - 59.0 °F 73% 29.92 in 6.2 mi SSW 9.2 mph - N/A   Mostly Cloudy
4:00 AM 68.0 °F - 60.8 °F 78% 29.92 in 6.2 mi South 4.6 mph - N/A   Mostly Cloudy
5:00 AM 67 °F - 62 °F 80% 29.95 in 6 mi NNE 4.5 mph - -   Partly Cloudy
5:00 AM 66.2 °F - 60.8 °F 83% 29.95 in 6.2 mi NW 6.9 mph - N/A   Mostly Cloudy
6:00 AM 68.0 °F - 59.0 °F 73% 29.95 in 6.2 mi West 6.9 mph - N/A   Mostly Cloudy
7:00 AM 69.8 °F - 60.8 °F 73% 29.98 in 6.2 mi WSW 4.6 mph - N/A   Mostly Cloudy
8:00 AM 71 °F - 59 °F 57% 29.97 in 6 mi SSW 4.5 mph - -   Partly Cloudy
8:00 AM 71.6 °F - 59.0 °F 64% 29.98 in 6.2 mi SW 4.6 mph - N/A   Mostly Cloudy
9:00 AM 75.2 °F - 60.8 °F 61% 29.98 in 6.2 mi NW 6.9 mph - N/A   Scattered Clouds
10:00 AM 78.8 °F - 57.2 °F 47% 29.98 in 6.2 mi NNW 6.9 mph - N/A   Mostly Cloudy
11:00 AM 80 °F - 56 °F 33% 29.97 in 6 mi West 2.3 mph - -   Partly Cloudy
11:00 AM 80.6 °F 81.1 °F 59.0 °F 48% 29.98 in 6.2 mi WSW 4.6 mph - N/A   Mostly Cloudy
12:00 PM 80.6 °F 80.8 °F 57.2 °F 45% 29.95 in 6.2 mi SSE 4.6 mph - N/A   Mostly Cloudy
1:00 PM 80.6 °F 80.8 °F 57.2 °F 45% 29.95 in 6.2 mi South 9.2 mph - N/A   Mostly Cloudy
2:00 PM 81 °F - 58 °F 34% 29.96 in 6 mi West 8.9 mph - - Thunderstorm Thunderstorm
2:00 PM 80.6 °F 80.8 °F 57.2 °F 45% 29.95 in 6.2 mi West 4.6 mph - N/A Thunderstorm Thunderstorm
3:00 PM 82.4 °F 81.7 °F 55.4 °F 39% 29.95 in 6.2 mi WSW 11.5 mph - N/A   Mostly Cloudy
4:00 PM 77.0 °F - 57.2 °F 50% 29.95 in 6.2 mi SSW 11.5 mph - N/A   Mostly Cloudy
5:00 PM 80 °F - 54 °F 30% 29.94 in 6 mi SSW 8.9 mph - -   Partly Cloudy
5:00 PM 84.2 °F 82.8 °F 53.6 °F 35% 29.92 in 6.2 mi South 9.2 mph - N/A   Mostly Cloudy
6:00 PM 80.6 °F 80.8 °F 57.2 °F 45% 29.92 in 6.2 mi West 6.9 mph - N/A   Mostly Cloudy
7:00 PM 80.6 °F 80.5 °F 55.4 °F 42% 29.92 in 6.2 mi WNW 11.5 mph - N/A   Scattered Clouds
8:00 PM 79 °F - 54 °F 31% 29.92 in 6 mi NW 11.2 mph - -   Partly Cloudy
8:00 PM 78.8 °F - 53.6 °F 42% 29.95 in 6.2 mi WNW 11.5 mph - N/A   Mostly Cloudy
9:00 PM 77.0 °F - 55.4 °F 47% 29.95 in 5.6 mi WSW 9.2 mph - N/A   Mostly Cloudy
10:00 PM 71.6 °F - 59.0 °F 64% 30.01 in 0.9 mi NNW 13.8 mph 34.5 mph N/A Rain , Thunderstorm Thunderstorms and Rain
11:00 PM 71 °F - 60 °F 59% 30.00 in 6 mi SSW 6.7 mph - - Rain , Thunderstorm Thunderstorms and Rain
11:00 PM 71.6 °F - 60.8 °F 69% 30.01 in 6.2 mi West 9.2 mph - N/A Rain , Thunderstorm Light Thunderstorms and Rain